This is the latest recevied weather packets stored in our database for station/object WC4PEM-9. If no packets are shown the sender has not sent any weather packets the latest 10 day(s).
| Time | Temp. | Humidity | Pressure | Rain* | Wind** | Luminosity | Snow |
|---|---|---|---|---|---|---|---|
| 1776955147 | 23.89° C | 63% | 1019.2 hPa | 0 mm | - | - | - |
| 1776954847 | 24.44° C | 61% | 1019 hPa | 0 mm | - | - | - |
| 1776954738 | 24.44° C | 62% | 1018.8 hPa | 0 mm | - | - | - |
| 1776954547 | 24.44° C | 62% | 1018.8 hPa | 0 mm | - | - | - |
| 1776954247 | 24.44° C | 63% | 1019.1 hPa | 0 mm | - | - | - |
| 1776954131 | 24.44° C | 64% | 1019 hPa | 0 mm | - | - | - |
| 1776953947 | 24.44° C | 64% | 1019 hPa | 0 mm | - | - | - |
| 1776953647 | 23.89° C | 63% | 1018.6 hPa | 0 mm | - | - | - |
| 1776953529 | 23.89° C | 64% | 1018.9 hPa | 0 mm | - | - | - |
| 1776953347 | 23.89° C | 64% | 1018.9 hPa | 0 mm | - | - | - |
| 1776953047 | 23.89° C | 64% | 1018.9 hPa | 0 mm | - | - | - |
| 1776952841 | 23.89° C | 67% | 1019 hPa | 0 mm | - | - | - |
| 1776952759 | 23.89° C | 67% | 1079 hPa | 0 mm | - | - | - |
| 1776952747 | 23.89° C | 67% | 1019 hPa | 0 mm | - | - | - |
| 1776952447 | 23.33° C | 67% | 1019 hPa | 0 mm | - | - | - |
| 1776952327 | 23.33° C | 66% | 1018.9 hPa | 0 mm | - | - | - |
| 1776952147 | 23.33° C | 66% | 1018.9 hPa | 0 mm | - | - | - |
| 1776951847 | 23.33° C | 69% | 1018.8 hPa | 0 mm | - | - | - |
| 1776951547 | 23.33° C | 70% | 1018.8 hPa | 0 mm | - | - | - |
| 1776951247 | 22.78° C | 70% | 1018.7 hPa | 0 mm | - | - | - |
| 1776951106 | 22.78° C | 71% | 1018.8 hPa | 0 mm | - | - | - |
| 1776950947 | 22.78° C | 71% | 1018.8 hPa | 0 mm | - | - | - |
| 1776950647 | 22.78° C | 71% | 1018.9 hPa | 0 mm | - | - | - |
| 1776950456 | 22.22° C | 73% | 1019 hPa | 0 mm | - | - | - |
| 1776950347 | 22.22° C | 73% | 1019 hPa | 0 mm | - | - | - |
* Rain latest hour (hover to see other rain measurements)
** Current wind speed in m/s (hover to see current wind gust speed)